DW3015 Weather Reports


time (UTC)temp
C
wind
direction
speed
KPH
gust
KPH
rain 1hr
cm
rain 24hr
cm
rain mn
cm
humidity
%
barometer
mb
20260505153101 10 175 0.0 0.0 0.00 0.00 0.10 82 1011.4
20260505151559 9 175 0.0 0.0 0.00 0.00 0.10 82 1011.3
20260505124528 11 0.0 0.0 0.00 0.00 0.03 62 1010.8
20260505123023 11 0.0 0.0 0.00 0.00 0.00 61 1009.6
20260505121519 11 0.0 0.0 0.00 0.00 0.00 60 1009.1
20260505120014 11 0.0 0.0 0.00 0.00 0.00 58 1009.2
20260505114511 11 0.0 0.0 0.00 0.00 0.00 57 1008.1
20260505113015 11 0.0 0.0 0.00 0.00 0.00 56 1008.4
20260505111502 11 0.0 0.0 0.00 0.00 0.00 56 1008.3
20260505101553 12 0.0 0.0 0.00 0.00 0.00 56 1008.4
20260505100040 12 0.0 0.0 0.00 0.00 0.00 55 1008.1
20260505094538 12 0.0 0.0 0.00 0.00 0.00 55 1008.1
20260505093040 12 0.0 0.0 0.00 0.00 0.00 54 1008.2
20260505091529 12 0.0 0.0 0.00 0.00 0.00 54 1008.1
20260505090022 12 0.0 0.0 0.00 0.00 0.00 53 1008.0
20260505084519 12 0.0 0.0 0.00 0.00 0.00 53 1007.9
20260505083013 12 0.0 0.0 0.00 0.00 0.00 53 1007.3
20260505081510 12 0.0 0.0 0.00 0.00 0.00 53 1007.7
20260505080005 13 0.0 0.0 0.00 0.00 0.00 52 1007.6
20260505074601 13 0.0 0.0 0.00 0.00 0.00 50 1007.5
20260505073059 13 0.0 0.0 0.00 0.00 0.00 50 1007.4
20260505071555 13 0.0 0.0 0.00 0.00 0.00 51 1007.7
20260505070048 13 0.0 0.0 0.00 0.00 0.00 49 1007.0
20260505064543 13 0.0 0.0 0.00 0.00 0.00 49 1007.0
20260505063041 13 0.0 0.0 0.00 0.00 0.00 50 1006.5
20260505061540 14 0.0 0.0 0.00 0.00 0.00 50 1006.1
20260505060034 14 0.0 0.0 0.00 0.00 0.00 49 1005.9
20260505054536 14 0.0 0.0 0.00 0.00 0.00 49 1005.9
20260505053021 15 0.0 0.0 0.00 0.00 0.00 49 1005.5
20260505051518 15 0.0 0.0 0.00 0.00 0.00 46 1005.1
20260505041502 17 5 0.0 0.0 0.00 0.00 0.05 44 1004.2
20260505040002 18 5 0.0 0.0 0.00 0.00 0.05 45 1003.8
20260505034601 18 360 0.0 0.0 0.00 0.00 0.05 44 1003.5
20260505033116 18 360 0.0 0.0 0.00 0.00 0.05 45 1003.0
20260505031559 18 5 0.0 0.0 0.00 0.00 0.05 46 1002.8
20260505030059 18 15 0.0 0.0 0.00 0.00 0.05 54 1002.5
20260505024604 18 5 0.0 0.0 0.00 0.00 0.05 54 1002.3
20260505023107 18 9 0.0 0.0 0.00 0.00 0.05 59 1001.9
20260505021558 18 9 0.0 0.0 0.00 0.00 0.05 65 1001.5
20260505020057 21 350 0.0 0.0 0.00 0.00 0.03 54 1001.2
20260505014557 22 9 0.0 0.0 0.00 0.00 0.00 48 1000.6
20260505013056 22 215 0.0 0.0 0.00 0.00 0.00 54 999.7
20260505011600 23 215 0.0 0.0 0.00 0.00 0.00 51 999.4
20260505010058 24 215 0.0 0.0 0.00 0.00 0.00 48 999.2
20260505004559 25 215 0.0 0.0 0.00 0.00 0.00 45 999.1
20260505003054 26 214 0.0 0.0 0.00 0.00 0.00 42 999.1
20260505001554 27 235 0.0 0.0 0.00 0.00 0.00 40 998.9
20260505000059 27 226 0.0 0.0 0.00 0.00 0.00 41 999.1
20260504234615 27 210 0.0 0.0 0.00 0.00 0.00 38 999.0
20260504233053 28 213 0.0 0.0 0.00 0.00 0.00 36 999.0
20260504231556 28 216 0.0 0.0 0.00 0.00 0.00 38 999.0
20260504230051 28 207 0.0 0.0 0.00 0.00 0.00 36 998.8
20260504224600 28 252 0.0 0.0 0.00 0.00 0.00 35 998.8
20260504223050 29 226 0.0 0.0 0.00 0.00 0.00 33 998.7
20260504221601 29 231 0.0 0.0 0.00 0.00 0.00 35 998.6
20260504220053 29 225 0.0 0.0 0.00 0.00 0.00 35 998.6
20260504214552 30 258 0.0 0.0 0.00 0.00 0.00 31 998.7
20260504213058 30 229 0.0 0.0 0.00 0.00 0.00 27 998.7
20260504211546 30 214 0.0 0.0 0.00 0.00 0.00 31 998.6
20260504210055 31 203 0.0 0.0 0.00 0.00 0.00 31 998.8
20260504204619 31 216 0.0 0.0 0.00 0.00 0.00 34 998.9
20260504203040 30 195 0.0 0.0 0.00 0.00 0.00 35 999.1
20260504201538 30 167 0.0 0.0 0.00 0.00 0.00 34 999.2
20260504200040 30 203 0.0 0.0 0.00 0.00 0.00 36 999.3
20260504194545 30 160 0.0 0.0 0.00 0.00 0.00 34 999.5
20260504193033 29 184 0.0 0.0 0.00 0.00 0.00 35 999.4
20260504191530 28 179 0.0 0.0 0.00 0.00 0.00 36 999.7
20260504190035 28 190 0.0 0.0 0.00 0.00 0.00 36 999.7
20260504184526 28 212 0.0 0.0 0.00 0.00 0.00 37 999.7
20260504183027 28 203 0.0 0.0 0.00 0.00 0.00 39 1000.0
20260504181521 27 178 0.0 0.0 0.00 0.00 0.00 40 1000.0
20260504180018 27 158 0.0 0.0 0.00 0.00 0.00 40 1000.2
20260504174516 27 213 0.0 0.0 0.00 0.00 0.00 40 1000.2
20260504173014 26 213 0.0 0.0 0.00 0.00 0.00 42 1000.4
20260504171532 26 217 0.0 0.0 0.00 0.00 0.00 43 1000.5